User: anonymous   Login
Location: Krakow
(50.0830°N, 19.9170°E)
Time: 09:26:42
(UTC+02:00)
Language:

Transit 4A - Orbit

View from above orbital plane
View from above orbital plane
View from above satellite
View from above satellite

Ground track
Ground track

The orbit data is extracted from the following two-line orbital elements,

1 00116U 61015A   24110.90217192  .00000317  00000-0  30209-3 0  9998
2 00116  66.8124  19.3042 0068735 107.2065 253.6553 13.92023206186974
Epoch (UTC): 19 April 2024 21:39:07
Eccentricity: 0.0068735
inclination: 66.8124°
perigee height: 871 km
apogee height: 972 km
right ascension of ascending node: 19.3042°
argument of perigee: 107.2065°
revolutions per day: 13.92023206
mean anomaly at epoch: 253.6553°
orbit number at epoch: 18697

The dashed part of the orbit path shows where the satellite is in the earth's shadow,  

DLR